Location: Eboldshausen
(51.7766°N, 10.0050°E)
Time: 16:05:42
(UTC+00:00)

Cosmos 1782 Rocket - Pass Details

Date: 15 November 2025
Orbit: 599 x 626 km, 82.5° (Epoch: 12 December)

Event Time Altitude Azimuth Distance (km) Brightness Sun altitude
Rises 16:38:49 0° 183° (S) 2,901 7.3 -10.7°
Reaches altitude 10° 16:41:02 10° 181° (S) 1,998 6.4 -11.0°
Maximum altitude 16:45:27 72° 97° (E) 662 3.5 -11.7°
Drops below altitude 10° 16:49:53 10° 14° (NNE) 2,007 5.9 -12.3°
Sets 16:52:07 0° 13° (NNE) 2,915 6.7 -12.7°
